GW0245 Weather Reports


Display with metric or nautical units.
time (UTC)temp
F
wind
direction
speed
MPH
gust
MPH
rain 1hr
in
rain 24hr
in
rain mn
in
humidity
%
barometer
mb
20260505041604 61 0 1.0 5.0 0.00 0.00 0.00 40 1013.7
20260505034554 61 0 3.0 11.0 0.00 0.00 0.00 39 1013.1
20260505033100 62 141 2.0 8.0 0.00 0.00 0.00 39 1013.1
20260505031557 62 0 0.0 8.0 0.00 0.00 0.00 39 1012.8
20260505030055 62 122 1.0 10.0 0.00 0.00 0.00 37 1012.7
20260505024553 63 150 3.0 11.0 0.00 0.00 0.00 37 1012.4
20260505023054 63 148 2.0 12.0 0.00 0.00 0.00 36 1012.3
20260505021603 64 132 5.0 12.0 0.00 0.00 0.00 35 1011.9
20260505020055 64 121 6.0 13.0 0.00 0.00 0.00 33 1011.8
20260505014557 65 143 4.0 14.0 0.00 0.00 0.00 31 1011.7
20260505013055 66 150 5.0 11.0 0.00 0.00 0.00 29 1011.6
20260505011600 67 109 5.0 14.0 0.00 0.00 0.00 29 1011.6
20260505010107 67 127 7.0 13.0 0.00 0.00 0.00 28 1011.7
20260505004557 68 122 8.0 20.0 0.00 0.00 0.00 28 1011.9
20260505003058 69 144 3.0 11.0 0.00 0.00 0.00 27 1011.9
20260505001558 70 136 6.0 16.0 0.00 0.00 0.00 26 1011.8
20260505000108 70 104 6.0 17.0 0.00 0.00 0.00 27 1011.8
20260504234607 70 165 5.0 12.0 0.00 0.00 0.00 28 1011.7
20260504233058 70 138 7.0 16.0 0.00 0.00 0.00 28 1011.8
20260504231554 70 103 5.0 17.0 0.00 0.00 0.00 29 1012.0
20260504230055 70 153 10.0 17.0 0.00 0.00 0.00 32 1011.8
20260504224555 71 164 7.0 15.0 0.00 0.00 0.00 32 1011.9
20260504223058 71 165 6.0 17.0 0.00 0.00 0.00 31 1012.0
20260504221556 73 132 5.0 16.0 0.00 0.00 0.00 32 1012.0
20260504214559 72 110 9.0 24.0 0.00 0.00 0.00 32 1012.3
20260504213110 72 137 9.0 19.0 0.00 0.00 0.00 32 1012.8
20260504211555 71 92 8.0 16.0 0.00 0.00 0.00 32 1012.9
20260504210105 71 140 8.0 20.0 0.00 0.00 0.00 31 1013.1
20260504204605 72 86 6.0 15.0 0.00 0.00 0.00 32 1012.7
20260504203059 73 154 6.0 14.0 0.00 0.00 0.00 31 1013.1
20260504201558 71 145 7.0 17.0 0.00 0.00 0.00 32 1013.1
20260504200057 71 136 9.0 17.0 0.00 0.00 0.00 33 1013.2
20260504194559 70 94 6.0 14.0 0.00 0.00 0.00 34 1013.2
20260504193113 71 81 6.0 16.0 0.00 0.00 0.00 32 1013.2
20260504191559 71 97 7.0 17.0 0.00 0.00 0.00 34 1013.3
20260504190107 71 93 7.0 17.0 0.00 0.00 0.00 35 1013.4
20260504184559 71 142 5.0 15.0 0.00 0.00 0.00 36 1013.4
20260504183102 69 88 5.0 17.0 0.00 0.00 0.00 38 1013.5
20260504181558 68 132 6.0 17.0 0.00 0.00 0.00 37 1013.6
20260504180140 69 119 5.0 14.0 0.00 0.00 0.00 37 1013.8
20260504174555 69 0 8.0 17.0 0.00 0.00 0.00 36 1014.1
20260504173102 69 121 7.0 16.0 0.00 0.00 0.00 36 1014.0
20260504171556 68 154 8.0 17.0 0.00 0.00 0.00 37 1013.8
20260504120108 61 153 1.0 5.0 0.00 0.00 0.00 44 1012.9
20260504100116 63 0 1.0 5.0 0.00 0.00 0.00 41 1013.7
20260504081608 65 0 0.0 11.0 0.00 0.00 0.00 35 1012.9
20260504060107 65 0 0.0 2.0 0.00 0.00 0.00 29 1012.3